Skip to main content.
NOAA NWS Hourly Roundups by Site

NOAA NWS Hourly Roundups by Site

Regional Weather Roundup for Omaha, NE

To Select Another Site Choose from List

Select Site:  

000
ASUS43 KOAX 040810
RWRNE

WEATHER ROUNDUP FOR NEBRASKA
NATIONAL WEATHER SERVICE OMAHA NE
300 AM CDT SAT APR 04 2020

NOTES: SATELLITE DATA IS BEING USED TO AUGMENT CLOUD COVER ABOVE
       12000 FEET.
       "FAIR" INDICATES FEW OR NO CLOUDS BELOW 12,000 FEET WITH NO
       SIGNIFICANT WEATHER AND/OR OBSTRUCTIONS TO VISIBILITY.


NEZ001>004-019>022-054>056-040900-
NEBRASKA PANHANDLE

CITY           SKY/WX    TMP DP  RH WIND       PRES   REMARKS
SCOTTSBLUFF    FAIR      30  17  58 SE14      30.05F WCI  19
ALLIANCE       CLOUDY    28  18  66 S16       30.07S WCI  16
CHADRON        FAIR      32  19  58 S29G39    30.01F WCI  18
GORDON         FAIR      26  20  80 S6        30.07F WCI  19
KIMBALL        FAIR      24  15  69 SE13      30.04F WCI  13
SIDNEY         CLOUDY    28  16  60 S15       30.07F WCI  16
$$

NEZ057>060-069>072-079>082-040900-
SOUTHWEST NEBRASKA

CITY           SKY/WX    TMP DP  RH WIND       PRES   REMARKS
NORTH PLATTE   FAIR      22  18  85 SE8       30.20S WCI  12
IMPERIAL       CLOUDY    27  20  75 SE13      30.17S WCI  16
LEXINGTON      FAIR      22  21  96 CALM      30.23F
MCCOOK         FAIR      23  19  85 E5        30.22S WCI  17
OGALLALA       FAIR      29  23  79 S10       30.17S WCI  19
$$

NEZ005>010-023>029-035>040-094-040900-
NORTH CENTRAL NEBRASKA

CITY           SKY/WX    TMP DP  RH WIND       PRES   REMARKS
VALENTINE      FAIR      23  18  81 SE5       30.17F WCI  17
AINSWORTH      FAIR      21  19  93 S9        30.18F WCI  11
BROKEN BOW     FAIR      19  17  92 CALM      30.22F
O`NEILL        FAIR      20  18  91 S5        30.24F WCI  14
ORD            CLOUDY    23  20  88 CALM      30.23F
THEDFORD       FAIR      22  20  93 SE5       30.18F WCI  15
$$

NEZ041-046>049-061>064-073>077-083>087-040900-
SOUTH CENTRAL NEBRASKA

CITY           SKY/WX    TMP DP  RH WIND       PRES   REMARKS
GRAND ISLAND   CLOUDY    25  20  81 N5        30.27S WCI  19
AURORA         CLOUDY    26  23  87 NE7       30.27S WCI  19
HASTINGS       CLOUDY    25  20  81 N9        30.25F WCI  15
HEBRON         CLOUDY    28  23  82 N7        30.27F WCI  21
HOLDREGE       FAIR      21  20  94 NE5       30.23F WCI  15
KEARNEY        FAIR      19  18  95 N6        30.24F WCI  11
YORK           CLOUDY    25  23  93 N7        30.26F WCI  17
$$

NEZ011>018-030>034-042>045-040900-
NORTHEAST NEBRASKA

CITY           SKY/WX    TMP DP  RH WIND       PRES   REMARKS
NORFOLK        FAIR      19  16  88 N6        30.26F WCI  11
ALBION         FAIR      20  18  93 CALM      30.26F
BLAIR          CLOUDY    27  24  87 N10       30.27F WCI  17
COLUMBUS       CLOUDY    24  20  84 N6        30.29F WCI  17
FREMONT        CLOUDY    28  24  86 N8        30.28F WCI  20
TEKAMAH        CLOUDY    27  22  81 N12       30.30F WCI  17
WAYNE          FAIR      17  14  90 CALM      30.29F
$$

NEZ050>053-065>068-078-088>093-040900-
SOUTHEAST NEBRASKA

CITY           SKY/WX    TMP DP  RH WIND       PRES   REMARKS
LINCOLN        CLOUDY    26  20  77 N10       30.29F WCI  16
OMAHA EPPLEY   CLOUDY    28  23  81 N13       30.29F WCI  17
BEATRICE       CLOUDY    28  24  84 N9        30.27F WCI  20
NEBRASKA CITY  CLOUDY    28  26  91 NE12      30.27F WCI  18
PLATTSMOUTH    CLOUDY    28  23  82 N6        30.28F WCI  21
$$

NEZ044-045-051>053-067-040900-
OMAHA AREA

CITY           SKY/WX    TMP DP  RH WIND       PRES   REMARKS
OMAHA EPPLEY   CLOUDY    28  23  81 N13       30.29F WCI  17
BLAIR          CLOUDY    27  24  87 N10       30.27F WCI  17
FREMONT        CLOUDY    28  24  86 N8        30.28F WCI  20
MILLARD        CLOUDY    29  23  76 N7        30.30S WCI  22
OFFUTT AFB     CLOUDY    28  22  77 N6        30.28F WCI  22
PLATTSMOUTH    CLOUDY    28  23  82 N6        30.28F WCI  21
WAHOO          CLOUDY    28  24  85 N9        30.28F WCI  19
$$


 

View Past Reports for Omaha, NE.

Products Courtesy of NOAA-NWS
NWS Information Parsing Script by Ken True at Saratoga Weather - Script by SE Lincoln Weather.